Showing default

COSMOS 2254, 22689

Orbit data source: Space-Track

COSMOS 2254, 22689 is a payload satellite owned by VKS (CIS) in LEO that was launched on Thu, 24 Jun 1993 UTC via a TSIKLON-3 launch vehicle from the Plesetsk Missile And Space Complex (PKMTR). Payload-class satellites include a variety of spacecraft equipped with specific instruments for various scientific and technological missions. These include communications satellites like Starlink; space stations such as the ISS; scientific satellites like the Hubble; Earth observation satellites from companies like Planet Labs, Umbra, and HawkEye 360; GPS; miniature CubeSats for education and research; and military/defense satellites.

Loading next visibility...
Identifier
22689, 1993-038C
Orbit
LEO
Country
Flag of CISCIS
Related business
Manufacturer
NPO PM
Mission
Defense Communications
Bus & Motor
STRELA-3, Unknown motor
Mass
225 kg wet, 225 kg dry
Launch date (UTC)
1993-06-24 (33 years ago)
Launch vehicle
TSIKLON-3
Launch site
Plesetsk Missile And Space Complex (PKMTR)
Object type
Payload
Rocket body
Debris
Shape & HBR
Cyl, 0.8 m
Radar Cross Section
1.257 m², Large (>1 m²)

Expand to show TLE details & history
Last TLE update: 13 hours ago

TLE from 13 hours ago
0 COSMOS 2254
1 22689U 93038C   26036.18478986  .00000042  00000-0  16956-3 0  9994
2 22689  82.5809 288.6869 0010929 249.7229 278.1846 12.64909232505446
Epoch: 2026-02-05T04:26Z
TLE epoch observation values (Epoch: 2026-02-05T04:26:05.843Z)
Latitude
12.07311°
Longitude
-94.76622°
Altitude
1,403.529 km
Speed
7.16 km/s
True Right ascension
07h 08m 23s
True Declination
12° 00' 32"
Sunlit
Object was in full shadow at epoch
Visualization orbit readout
Latitude
Unknown
Longitude
Unknown
Altitude
Unknown
Speed
Unknown
Apparent Right ascension
Unknown
Apparent Declination
Unknown
Sunlit
N/A
Visualization observer readout
Local Sidereal Time
19:06:41
Azimuth
Unknown
Elevation
Unknown
Doppler factor
Unknown
Orbital elements
Apogee altitude
1,408.565 km
Perigee altitude
1,391.563 km
Semi-major axis
7,778.201 km
Eccentricity
0.00109
Inclination
82.5809°
RAAN
288.6869°
Arg. of periapsis
249.7229°
True anomaly
278.06061°
Mean anomaly
278.1846°
Eccentric anomaly
278.12261°
Mean motion
3.16391 °/min
Orbital period
113.78 mins
BSTAR
0.00016956
Loading maneuver chart data...
Computing Atmospheric mass density...
Loading historical data...
Loading historical data...
Loading historical data...
Loading historical data...
Loading historical data...
Loading historical data...
Loading historical data...

Documentation

Showing up to 5 results
|